Theta_e
300 300 300 301 301 301 301 301 301 301 301 301 301 300 299 299 297 288 285 285 283 280 280 281 281 279 279 278 276 275 275 275 273 270 270 268 264 266 265 268 267 267 266 265 264 259 264 274 275 272 272 273 273 271
300 300 300 300 302 301 300 300 300 300 299 299 300 300 299 298 297 292 283 286 286 282 280 282 282 282 280 280 277 276 275 274 278 273 270 267 266 261 260 262 267 266 269 268 269 269 271 271 272 272 273 274 274 275
299 300 299 300 302 300 300 299 299 299 299 299 299 299 298 297 296 290 282 283 283 280 280 280 279 281 283 281 282 276 276 277 275 272 269 269 266 267 263 264 264 267 269 267 268 269 270 271 271 272 273 272 273 275
299 299 300 300 299 299 299 299 298 298 298 298 298 298 297 296 294 290 282 284 281 279 274 276 281 278 282 281 281 280 278 276 273 271 265 263 266 271 265 265 265 267 268 269 266 264 267 268 269 270 270 270 269 269
299 300 300 299 299 298 298 298 298 298 298 298 297 296 295 295 293 285 282 283 283 279 274 274 277 281 283 279 278 278 274 270 265 266 263 265 266 265 266 262 262 264 266 267 267 264 263 265 268 270 268 268 268 266
298 300 300 299 298 298 298 298 297 297 297 297 296 295 294 293 290 283 277 281 287 281 272 267 278 278 280 282 280 274 272 265 265 265 259 259 261 263 261 263 260 260 261 264 262 264 265 266 267 268 266 266 265 263
299 300 300 298 297 297 297 297 297 296 296 296 296 294 292 292 283 280 279 284 288 280 272 263 267 275 279 280 279 278 275 265 265 267 263 261 265 262 259 260 259 260 262 264 265 263 265 265 264 265 266 266 265 261
300 300 299 298 298 297 297 296 296 295 295 295 294 292 290 290 286 278 282 288 283 277 274 262 263 268 277 274 273 278 271 267 266 267 268 266 266 269 263 255 252 255 259 261 262 262 262 263 264 264 264 263 261 257
298 297 296 296 296 296 297 296 295 294 294 294 290 289 282 279 274 275 289 284 278 275 263 261 261 260 276 274 274 269 266 262 266 266 267 267 260 260 256 253 253 257 257 258 261 262 262 262 261 260 258 257 256 252
296 295 295 295 295 295 294 294 294 294 293 292 282 274 268 280 287 281 270 267 267 265 265 264 268 264 268 269 265 262 264 261 257 261 267 267 255 254 250 252 253 254 255 258 257 257 259 258 257 254 253 252 253 254
295 295 295 295 294 294 294 294 294 293 291 281 272 277 281 280 272 263 261 262 260 262 267 268 264 264 270 264 263 267 259 258 254 260 261 255 255 253 250 252 253 254 255 255 254 252 253 254 255 253 251 249 250 250
295 295 295 294 294 294 294 293 293 287 285 283 284 278 269 264 261 263 253 259 262 264 267 266 266 267 268 269 262 260 258 258 254 263 258 253 258 250 248 251 251 251 252 252 251 253 252 253 252 253 252 252 253 252
296 295 295 294 294 294 293 292 291 291 284 277 267 262 263 261 262 257 261 261 261 267 268 267 265 268 268 264 256 257 261 256 263 255 255 257 255 252 250 250 253 251 251 252 253 251 252 251 252 253 252 249 249 251
296 295 295 294 293 293 292 291 291 286 276 266 260 260 261 258 257 259 261 263 267 267 268 267 265 263 265 260 253 256 257 258 253 252 253 256 257 256 254 253 256 255 255 255 254 253 255 257 256 255 255 253 253 253
295 294 292 291 292 292 290 290 288 278 271 263 261 259 259 264 261 262 263 264 268 269 269 265 265 261 258 257 256 256 254 252 258 257 260 263 263 263 262 260 260 260 259 258 257 258 259 259 256 255 254 253 253 254
295 291 287 292 292 290 289 285 276 273 266 267 260 259 260 261 261 262 262 263 269 268 267 263 255 255 255 255 256 252 255 252 259 262 266 266 265 263 262 262 262 261 260 260 259 258 257 256 255 254 251 252 253 254
292 285 291 291 290 288 288 273 269 266 261 263 261 262 264 263 262 264 269 267 266 263 258 254 255 256 255 253 254 260 260 264 266 267 267 265 264 262 261 263 263 262 259 257 255 255 255 256 253 252 253 255 253 254
287 287 290 289 286 281 270 267 261 259 259 256 260 260 264 266 265 267 264 264 262 259 258 257 258 253 252 253 258 263 265 267 267 266 265 262 259 258 260 259 258 257 255 255 254 253 253 252 254 256 255 256 253 254
289 286 287 287 284 269 264 264 262 258 257 257 260 263 264 266 265 263 262 261 262 266 260 255 253 253 255 260 263 265 265 265 263 261 260 255 254 254 255 256 256 255 254 253 252 253 254 255 256 257 257 255 255 256
287 285 284 282 279 264 261 260 258 260 263 258 258 256 255 257 260 258 255 255 256 253 255 254 254 256 258 261 261 259 258 257 256 255 255 256 253 251 255 255 256 256 254 253 254 261 254 256 257 257 257 256 254 256
279 277 279 274 261 258 255 250 255 251 252 255 251 251 252 251 249 248 249 252 250 249 251 253 253 254 251 252 253 254 253 251 253 253 253 253 255 255 255 256 255 256 253 252 253 255 261 258 260 258 256 258 259 259
271 278 263 265 260 256 255 248 253 251 255 252 252 248 247 251 247 245 245 246 246 254 253 252 252 253 255 253 253 251 252 251 250 252 260 258 255 255 256 256 255 254 254 255 255 256 257 258 258 256 257 257 260 258
272 269 258 257 260 258 257 247 255 250 256 253 247 253 249 245 244 244 246 246 251 250 251 253 251 249 251 249 249 251 250 250 252 252 254 253 253 256 257 257 257 254 256 258 257 257 257 261 261 261 257 259 257 258
267 256 255 254 251 257 251 251 247 248 247 249 248 254 249 245 244 244 249 248 252 251 253 252 251 252 250 249 251 253 254 253 252 252 254 252 254 256 256 257 257 257 258 259 258 257 257 256 261 256 255 254 254 255
261 259 256 255 247 255 253 253 250 252 252 244 247 248 247 242 246 244 248 252 249 250 252 252 252 253 252 250 251 253 254 255 253 253 255 255 252 252 256 257 257 258 259 254 256 256 256 255 254 254 255 257 257 254
258 254 256 253 253 258 254 255 251 250 246 246 245 243 240 244 247 249 251 251 251 253 254 255 256 253 252 254 253 253 256 256 253 252 256 254 253 252 253 255 256 259 259 258 257 256 256 256 255 255 257 258 263 263
257 256 252 254 253 252 253 249 250 248 246 247 246 247 247 248 247 254 255 254 254 256 256 258 258 257 258 256 256 254 251 253 254 255 254 254 256 257 258 257 257 261 259 257 258 258 258 258 258 257 257 258 258 259
255 253 256 252 252 248 252 246 246 247 249 250 251 250 250 252 255 258 257 254 251 248 247 248 249 251 252 252 249 249 248 246 246 250 252 255 256 257 258 259 260 265 266 266 265 265 260 259 259 258 258 258 259 260
253 253 254 252 248 248 253 254 254 253 254 252 251 251 254 256 254 253 254 250 244 248 251 252 252 245 247 247 248 251 248 248 251 252 254 258 260 261 262 262 262 263 263 262 267 268 267 266 266 262 260 261 261 261
251 250 252 248 252 256 256 252 249 245 247 246 246 249 251 251 250 249 249 248 248 248 246 245 244 248 250 250 251 254 251 250 252 257 259 259 260 263 262 262 262 263 264 264 263 263 268 266 264 262 259 259 260 260
250 248 248 247 250 250 245 242 240 243 240 238 238 243 247 246 249 250 248 246 243 242 247 249 251 247 248 248 248 249 257 258 257 258 258 261 261 262 262 263 263 264 264 264 264 263 263 262 261 260 260 260 259 262
248 246 247 249 250 244 241 240 239 240 239 240 242 238 243 245 246 251 250 247 251 252 259 253 253 257 255 256 255 257 265 263 262 261 260 261 262 265 266 267 268 267 266 266 266 263 262 261 261 260 260 260 260 260
242 241 239 242 246 247 245 244 244 245 242 242 243 242 241 245 247 252 253 251 252 251 251 252 255 256 256 256 258 260 263 260 259 268 268 269 270 270 268 266 267 267 265 264 264 264 263 262 261 261 260 260 260 260
Wind_Speed
15 16 17 18 19 22 22 22 22 23 23 25 24 24 24 23 23 3 0 3 1 3 1 3 3 1 2 1 4 3 5 2 3 2 4 4 3 5 3 5 7 8 9 5 4 2 10 3 4 7 3 3 5 5
15 16 17 18 18 19 22 22 22 23 23 24 24 22 22 23 23 8 2 2 3 4 3 2 3 2 3 2 3 1 3 3 4 4 1 3 2 2 3 4 2 2 7 8 10 7 1 3 3 1 2 5 4 9
14 14 16 17 18 19 19 21 21 22 23 24 23 22 20 21 19 9 2 3 2 3 2 2 3 3 4 3 2 3 2 2 2 1 4 2 2 4 4 6 2 3 3 3 4 2 3 1 3 3 4 7 7 9
14 14 15 18 19 19 20 20 20 21 23 24 24 21 19 17 15 10 4 5 2 1 4 1 1 4 6 5 2 2 3 4 4 2 3 4 3 2 3 3 3 4 4 5 3 2 1 2 1 5 8 8 9 8
13 15 14 16 18 20 20 19 19 21 23 23 23 18 17 14 10 5 2 2 2 2 2 2 1 5 5 5 6 5 4 3 2 3 3 2 2 4 1 3 3 2 5 5 5 2 3 1 6 6 7 7 6 7
15 14 12 16 19 21 19 19 20 23 24 25 23 17 15 14 6 2 2 2 6 3 4 2 1 5 5 5 6 6 3 4 3 4 2 1 2 4 4 3 1 1 2 1 3 4 5 6 5 4 8 8 7 7
14 15 13 15 18 20 19 21 22 24 25 26 21 15 11 11 5 4 3 5 10 1 3 3 2 4 3 3 3 3 4 2 4 2 3 2 1 4 3 3 2 3 4 4 5 4 6 3 3 5 9 8 10 7
14 16 15 17 17 18 19 20 24 25 27 26 17 8 6 5 6 3 3 9 4 4 4 4 3 3 5 3 2 2 2 3 5 2 1 2 1 1 2 3 3 3 3 6 5 4 4 8 7 6 6 4 5 5
15 15 17 18 19 20 18 22 24 26 27 21 8 4 4 4 4 3 17 5 3 4 4 4 3 3 4 2 3 4 3 4 3 1 0 2 2 2 4 3 2 2 1 5 3 6 6 6 6 4 4 4 5 2
14 16 17 18 18 19 21 23 24 25 24 10 6 5 5 2 14 7 8 6 7 6 6 3 1 2 2 2 2 2 2 1 2 3 1 1 3 3 4 4 3 3 2 1 4 3 2 2 2 2 2 2 4 4
13 14 17 16 14 18 20 21 23 22 8 5 5 3 2 10 4 5 4 6 5 6 4 2 1 1 2 2 1 1 1 1 4 4 3 3 3 4 3 3 2 2 1 0 0 1 0 3 6 5 3 3 3 4
10 11 14 11 14 19 21 21 22 5 1 4 6 3 4 7 4 8 2 4 6 1 4 2 3 1 3 2 3 4 3 4 2 2 4 3 4 3 2 2 3 2 1 2 1 3 1 3 4 4 3 3 4 4
7 10 13 11 14 21 21 22 20 17 5 4 6 6 5 5 11 8 6 5 4 4 4 4 4 2 3 3 3 4 2 3 1 4 2 4 3 3 5 3 3 1 1 0 1 1 2 2 2 3 2 4 3 3
8 11 16 11 16 20 21 21 19 7 5 5 5 8 5 5 1 4 3 3 3 2 3 1 3 2 2 5 1 4 3 3 4 2 3 3 3 2 3 2 2 3 5 5 5 4 4 4 3 3 4 3 3 4
8 12 8 8 19 19 19 15 11 4 4 4 5 2 2 2 2 2 2 2 2 2 2 3 2 2 3 3 2 3 6 2 2 2 1 1 1 2 3 3 5 4 4 5 4 5 6 5 4 4 4 4 5 4
9 5 4 17 18 17 13 7 4 3 4 4 6 4 2 3 4 2 0 2 2 3 1 3 1 5 3 1 3 3 4 3 1 1 2 2 2 1 1 2 2 3 4 4 4 4 4 4 5 6 2 4 5 5
3 0 9 15 16 11 11 4 5 6 4 4 1 1 2 2 4 2 1 2 3 2 1 3 4 6 1 4 3 1 1 0 2 2 2 1 2 1 1 1 2 1 2 2 2 3 4 2 2 2 4 4 5 5
2 3 10 13 10 4 4 5 5 5 4 1 3 3 2 1 1 1 1 2 3 2 2 2 3 3 4 4 1 0 0 1 1 1 1 1 1 0 0 1 2 1 2 2 3 3 2 3 4 5 6 6 3 5
2 3 9 11 5 4 4 5 4 3 3 1 2 1 0 1 2 1 1 3 2 2 3 3 3 3 3 2 1 1 2 2 1 2 1 1 1 1 1 2 3 3 3 3 2 3 4 6 5 4 5 3 5 5
2 9 9 11 7 5 6 4 2 4 1 2 2 2 1 1 2 2 2 3 2 2 3 2 5 4 4 2 1 1 2 1 1 3 3 2 1 0 2 3 3 3 3 3 4 8 2 4 4 6 6 6 4 7
5 6 8 5 5 7 5 2 4 2 2 1 2 2 3 3 3 3 3 4 4 3 2 4 4 3 1 1 1 1 1 3 3 4 4 2 2 2 3 3 3 2 3 2 3 6 7 6 6 4 5 6 6 7
2 7 3 5 5 5 6 2 3 2 1 2 1 2 2 2 3 3 3 3 3 4 4 4 3 2 0 0 2 3 2 3 1 2 4 4 2 2 3 2 1 3 3 5 4 6 7 6 4 4 5 7 8 5
5 4 5 5 6 5 3 2 4 5 2 4 3 4 3 3 3 2 2 3 4 3 2 2 2 2 2 2 2 3 3 4 2 3 3 3 2 3 3 4 3 4 6 7 4 5 6 10 9 8 4 5 3 5
8 7 5 3 3 2 2 4 2 4 4 5 4 6 4 3 4 5 3 4 4 1 1 3 3 2 2 2 1 3 3 3 2 3 3 2 3 4 3 4 4 5 6 7 6 6 5 6 10 3 3 4 5 6
6 4 5 3 3 5 6 6 6 5 2 1 1 5 3 3 3 2 3 5 3 2 2 2 2 2 3 2 2 3 3 4 3 3 3 4 2 3 4 4 5 7 4 3 6 6 6 5 4 5 6 7 8 8
2 4 2 4 3 2 4 1 2 3 2 3 6 3 3 3 3 6 5 4 4 4 5 6 6 3 3 5 4 3 4 5 4 2 4 4 3 3 5 7 8 7 5 5 6 6 8 7 7 8 8 11 17 14
0 5 2 1 2 3 2 3 3 3 1 5 4 2 3 1 5 6 3 4 4 4 4 4 6 6 6 4 4 3 2 4 5 3 2 4 6 6 7 9 10 8 3 5 7 9 11 11 10 10 10 9 10 11
2 2 4 2 1 1 3 1 4 6 5 3 3 2 6 9 7 5 4 2 2 2 2 1 1 1 2 3 1 2 0 1 3 5 5 6 7 7 9 8 9 20 15 12 11 9 9 11 11 12 12 13 11 9
1 1 2 2 2 1 5 7 6 4 1 4 5 4 7 4 3 2 3 2 2 2 2 3 4 3 2 2 2 3 3 3 2 5 8 9 9 6 4 5 7 9 9 8 20 21 16 13 12 11 14 11 10 8
2 1 3 1 3 5 3 3 3 2 1 1 2 4 4 4 3 1 2 3 3 2 2 2 2 2 1 0 3 4 2 5 6 6 8 11 10 9 8 9 11 11 9 10 10 11 20 13 11 7 6 4 5 6
0 2 1 1 5 3 2 2 3 1 3 2 2 2 4 5 6 2 1 1 2 1 2 2 2 1 2 2 2 2 6 3 6 9 9 8 9 9 10 11 11 10 11 11 10 10 9 10 8 9 10 11 12 12
2 2 3 2 5 3 3 4 2 1 3 3 3 1 4 3 3 4 2 2 3 3 6 4 2 3 4 4 3 5 13 8 8 7 11 10 10 10 11 10 9 7 9 9 7 7 9 11 9 10 10 12 12 12
2 2 1 3 5 5 4 4 4 5 2 2 3 2 2 2 5 4 2 3 3 3 3 4 4 4 5 6 7 7 10 6 11 20 22 22 23 20 11 8 8 5 6 8 9 9 10 10 10 12 12 12 12 12
Wind_Direction
39 35 31 27 22 22 19 18 15 14 12 10 9 9 7 7 8 40 128 11 82 113 56 16 9 100 57 84 151 185 76 318 55 143 152 214 142 221 93 155 177 163 150 183 93 75 276 123 105 163 195 46 103 111
32 29 24 17 13 22 17 15 15 13 9 5 2 6 5 6 4 5 53 346 334 77 98 45 67 52 34 3 131 127 187 163 178 99 118 101 165 70 141 233 39 260 180 179 180 210 107 51 75 11 336 124 122 128
27 26 21 13 17 18 13 11 9 8 5 4 1 2 3 5 8 25 56 341 11 106 70 97 39 4 30 5 267 138 280 152 54 166 151 144 171 123 161 238 129 254 172 138 74 194 150 112 67 52 63 101 108 119
26 17 13 22 14 11 6 4 5 3 2 1 358 359 359 4 17 33 61 331 34 84 115 71 12 29 316 353 24 9 120 71 83 54 102 132 146 117 210 178 145 195 108 161 276 305 30 255 135 122 97 93 91 73
18 16 23 15 10 4 360 358 0 359 356 354 353 355 352 358 7 74 70 5 81 109 164 131 92 357 1 39 54 53 73 90 81 54 73 212 117 101 36 59 274 192 183 163 217 195 142 143 135 125 105 99 90 105
11 3 13 14 6 0 3 1 0 356 353 349 347 347 351 350 12 123 11 323 21 33 91 81 35 8 344 3 44 50 68 70 79 115 184 278 249 98 105 204 256 347 348 336 151 86 77 88 63 65 92 98 93 96
2 356 11 13 5 6 6 358 355 351 345 344 346 343 353 48 47 77 101 303 347 75 84 55 19 342 330 333 7 11 51 50 92 91 57 139 78 80 101 197 83 23 21 41 52 89 77 40 117 78 101 95 96 89
9 15 18 3 357 353 349 351 348 344 342 339 347 343 31 45 58 20 312 5 5 84 58 95 302 23 341 20 21 351 20 20 13 111 75 102 46 20 256 289 310 311 350 48 32 46 99 109 97 87 89 94 92 89
19 14 5 356 352 348 351 350 344 342 337 337 354 68 39 33 25 275 328 29 48 95 102 70 87 292 330 36 19 1 48 42 296 81 6 84 326 219 238 237 241 246 167 167 76 68 73 90 109 90 88 70 120 159
7 5 0 353 350 353 352 349 343 341 335 358 42 43 9 5 317 343 7 24 15 343 30 80 315 327 35 21 337 38 19 67 77 272 328 87 261 254 244 233 271 290 225 96 76 45 63 67 129 148 162 161 155 162
357 359 355 355 3 357 348 347 346 350 5 16 18 355 260 341 45 30 38 60 328 29 15 353 75 323 342 38 290 52 192 351 65 275 107 334 321 273 314 337 327 308 349 334 87 132 103 163 165 164 186 217 195 181
339 350 354 2 1 354 349 348 344 4 348 283 312 34 6 29 25 69 357 333 44 28 329 15 307 274 307 49 86 330 115 42 239 294 66 345 267 274 320 295 295 314 58 79 68 123 91 104 152 159 170 191 210 211
344 343 341 335 338 347 347 344 340 333 33 46 42 42 32 315 36 60 358 334 13 344 354 339 323 332 341 56 59 56 52 231 327 45 217 223 275 271 228 236 272 227 207 198 208 178 165 178 184 172 208 237 225 246
338 338 338 354 343 342 345 346 346 14 58 69 63 16 70 353 4 184 200 218 276 281 314 288 293 31 339 31 154 74 235 48 43 24 242 261 260 268 206 228 172 229 210 223 230 222 223 220 233 217 213 208 200 250
329 335 355 344 344 346 345 356 3 33 76 73 65 54 70 242 243 243 265 303 262 262 334 348 10 68 332 52 56 60 21 315 197 223 208 223 179 149 175 196 220 234 217 225 206 216 223 220 206 233 229 216 219 247
316 32 355 346 345 345 354 359 19 60 40 67 50 66 286 54 317 343 318 272 1 322 38 46 86 39 313 122 35 231 115 240 268 147 133 146 96 111 205 242 246 228 217 228 220 216 214 203 210 227 218 222 233 231
29 87 340 338 343 352 14 47 43 40 102 58 316 289 141 155 202 230 324 314 327 51 307 96 53 231 10 25 337 213 84 107 154 105 88 104 129 134 1 330 343 277 242 235 222 219 220 220 153 166 254 253 228 236
350 333 344 344 357 12 18 40 76 68 54 294 97 266 326 115 240 75 17 360 25 90 96 216 121 75 208 174 208 332 97 124 61 105 186 107 97 157 306 344 339 301 249 247 225 240 205 189 219 242 240 250 246 255
32 24 358 3 32 82 54 359 58 107 224 231 277 337 54 48 69 51 20 346 292 316 110 54 90 194 224 206 168 338 46 17 292 285 293 229 202 102 331 292 270 268 254 238 218 231 228 225 231 235 242 203 237 246
359 24 20 37 46 75 38 336 48 92 267 262 8 4 244 241 328 45 12 10 12 82 57 169 204 210 187 202 152 186 201 166 120 6 317 326 268 207 272 251 263 272 276 279 257 266 252 267 233 232 231 228 229 251
30 342 17 50 44 65 91 353 27 150 271 94 313 26 273 6 25 12 339 346 55 183 229 214 218 245 298 209 212 158 200 157 193 175 206 292 282 227 277 271 259 252 235 258 267 281 291 256 262 223 226 253 255 257
280 6 49 8 70 17 76 291 147 262 100 234 3 27 1 339 327 318 297 42 225 231 191 177 215 180 85 263 232 202 204 169 198 276 291 294 311 307 288 243 276 271 262 254 236 252 260 257 255 231 234 250 261 253
29 39 40 31 61 48 265 52 55 359 46 293 10 4 324 329 243 342 307 222 259 242 207 192 198 191 178 293 309 276 206 173 214 225 252 241 249 260 261 271 225 246 280 278 228 244 256 275 283 291 266 273 266 257
32 54 64 55 65 239 12 13 37 31 30 24 28 303 322 283 324 46 249 261 253 292 209 216 149 88 5 2 267 236 216 177 226 290 222 192 279 282 225 266 266 245 247 273 277 271 268 262 275 300 280 267 254 256
64 331 73 333 323 46 24 354 346 35 273 292 334 298 309 0 25 337 244 272 276 247 220 170 177 190 175 239 276 254 209 168 175 210 248 195 213 304 293 254 252 247 240 236 268 260 264 256 255 253 257 257 260 251
81 297 117 199 275 109 198 339 237 227 180 299 239 270 19 72 40 258 240 229 227 208 196 194 187 179 249 211 207 222 229 172 138 191 268 180 188 197 269 291 295 287 221 207 232 249 259 258 253 252 255 265 280 291
212 261 274 300 112 101 59 47 40 106 231 219 250 17 57 6 255 253 265 220 219 228 211 179 172 187 214 207 220 216 172 166 183 206 234 244 243 229 237 254 267 264 265 214 230 241 254 260 259 257 258 257 252 254
186 142 187 228 68 21 161 115 165 212 230 213 89 215 190 199 233 235 216 289 266 334 322 306 287 233 227 215 194 118 83 358 289 278 273 258 244 245 245 244 247 269 279 283 275 260 236 244 250 250 248 249 257 254
88 11 100 300 346 253 223 197 221 226 177 151 175 240 244 233 258 314 335 330 319 38 344 333 332 356 325 280 224 215 188 164 94 295 294 296 303 295 249 243 256 269 275 273 284 290 285 279 262 236 240 248 253 256
282 311 108 177 190 237 237 177 247 275 319 197 290 308 291 280 274 272 322 349 358 307 260 184 220 92 236 357 303 317 221 186 197 209 275 293 298 302 293 286 285 286 283 279 276 279 289 300 295 290 293 264 243 244
45 71 45 202 244 254 259 301 318 331 23 356 341 189 257 311 310 278 302 311 333 41 85 26 22 204 169 232 202 318 313 256 214 231 244 268 271 276 281 279 277 275 275 275 274 274 273 283 281 277 276 273 273 280
37 154 147 281 281 291 20 30 325 337 329 10 288 307 314 359 306 293 297 32 20 48 88 119 82 302 228 256 267 257 273 287 289 286 280 275 272 272 275 279 284 300 299 298 299 271 270 267 270 270 270 270 269 268
47 41 45 343 323 332 333 7 5 326 356 325 280 225 221 186 239 277 295 193 198 212 240 249 255 270 273 265 262 278 305 285 283 304 316 316 312 314 321 309 297 322 323 316 308 297 287 277 272 269 269 270 269 269